Wind_Speed
11 12 13 13 12 11 11 11 11 10 11 13 16 19 21 23 22 20 18 17 17 16 16 18 20 19 17 17 17 17 17 16 14 12 11 11 10 10 9 8 8 9 9
10 12 13 13 12 12 11 11 11 9 10 11 13 15 18 21 22 20 18 17 15 15 16 17 19 20 20 19 20 19 19 18 16 14 13 12 11 10 9 8 8 9 10
10 12 14 14 13 12 11 11 11 10 10 10 11 13 16 19 21 21 20 17 15 14 15 16 17 19 20 20 21 20 20 19 17 16 15 14 13 11 10 9 9 9 10
10 11 14 14 14 13 12 12 11 10 11 9 9 10 13 16 19 19 19 18 16 15 16 16 17 18 19 19 20 21 21 20 19 18 17 15 13 12 11 11 10 10 10
11 10 12 14 14 14 13 12 12 11 12 11 10 9 9 13 16 17 17 18 18 18 18 17 17 17 18 18 18 19 20 20 20 19 16 14 12 11 9 9 10 10 9
13 11 12 13 14 14 14 13 13 13 13 13 11 8 6 9 12 14 15 16 18 20 20 19 18 17 17 17 16 16 16 16 16 15 14 12 11 9 8 7 8 8 8
18 16 14 13 14 15 15 15 15 15 15 14 13 9 6 6 8 10 12 15 17 19 20 19 18 18 17 16 15 14 14 14 13 12 12 12 11 9 8 8 8 7 7
21 20 17 15 14 15 16 17 17 16 16 15 14 12 8 6 6 7 10 13 15 17 18 19 19 18 17 16 16 15 15 14 13 13 12 13 13 12 11 10 10 9 8
24 21 20 18 16 17 18 19 20 19 18 18 16 14 12 10 8 7 8 10 12 13 15 16 17 17 17 17 17 16 16 16 16 15 15 16 16 16 15 14 13 12 11
26 24 20 20 21 21 21 22 23 23 22 20 19 17 15 13 11 10 9 9 10 11 13 14 15 16 16 16 16 15 16 17 18 19 19 20 20 20 19 17 16 14 13
28 25 23 23 23 24 25 25 26 26 25 24 23 21 18 16 15 13 12 11 11 11 12 12 13 14 14 15 15 15 15 17 18 19 20 22 23 23 22 20 17 16 15
27 26 25 25 25 26 27 28 28 29 28 28 26 24 22 20 18 16 15 15 15 14 14 14 13 13 14 14 14 14 14 15 16 17 19 21 22 24 23 21 19 18 17
23 24 26 26 26 27 28 29 30 31 31 30 30 28 26 24 21 19 18 17 17 17 17 17 17 17 16 15 14 15 15 16 16 17 18 20 21 23 24 23 21 20 19
19 20 23 24 24 25 26 28 30 32 33 34 34 31 29 27 25 23 20 19 19 19 19 19 19 20 19 18 17 17 18 18 18 17 17 18 20 21 22 22 22 21 20
16 17 18 19 21 22 24 27 32 35 36 36 36 35 32 30 28 26 24 23 21 20 19 19 20 20 21 21 20 19 19 20 20 19 19 18 19 19 20 21 21 21 21
15 16 17 19 20 21 22 24 28 33 36 38 38 37 35 34 32 30 28 27 25 24 23 22 21 21 21 22 22 20 20 20 21 20 20 19 19 20 20 21 21 21 22
14 15 16 17 19 20 20 22 24 29 35 38 38 36 35 35 34 32 31 30 30 28 27 25 25 23 23 23 23 22 21 22 22 22 21 20 20 20 20 20 20 21 21
16 16 16 17 18 19 20 21 22 25 29 33 36 36 36 35 34 33 32 33 33 32 30 29 28 27 26 26 26 25 24 23 23 23 22 21 20 20 20 20 19 20 21
18 18 17 18 19 19 19 20 21 22 24 28 32 35 35 35 34 33 33 33 33 33 33 32 32 30 29 29 29 28 26 25 25 24 24 23 22 22 21 20 20 20 21
21 20 20 20 20 21 21 20 20 21 23 26 29 31 33 35 35 35 34 35 35 35 34 34 35 34 33 32 31 30 28 26 26 26 25 24 23 22 21 20 20 20 21
22 22 22 21 22 22 22 22 22 22 23 24 26 28 31 33 35 36 36 36 36 36 36 35 36 36 34 34 33 31 28 26 26 26 25 24 23 21 20 20 20 20 20
23 24 24 23 24 24 25 25 24 24 25 25 25 26 28 30 33 35 37 37 37 36 35 35 34 33 34 34 34 31 28 26 26 26 25 24 23 22 22 22 22 22 21
24 24 25 25 25 25 26 26 27 27 26 26 26 27 27 28 29 32 35 36 37 36 35 35 33 32 33 33 33 31 28 27 27 27 26 24 24 24 24 23 23 22 22
24 25 25 26 26 26 27 27 28 28 27 27 26 26 27 28 28 28 31 34 35 36 36 35 34 34 33 32 31 30 29 30 29 28 26 25 25 24 24 24 23 23 22
25 25 25 26 26 27 28 28 28 28 28 27 26 26 27 28 28 27 27 30 32 34 34 35 35 35 34 33 32 31 31 32 31 29 26 26 25 25 25 25 24 23 22
26 25 25 26 27 27 28 28 29 29 29 28 27 26 26 26 26 27 27 27 28 32 33 34 36 37 36 34 33 33 33 33 33 30 27 26 26 26 25 25 24 23 22
Wind_Direction
277 261 251 251 251 246 235 230 230 234 237 240 238 233 230 231 232 233 237 243 245 244 234 222 216 212 209 207 206 207 209 209 216 231 249 266 273 266 259 256 250 249 250
276 259 248 245 246 246 239 232 231 234 235 238 239 235 231 231 231 230 231 235 237 233 226 219 216 216 215 214 212 213 215 220 227 240 254 269 272 262 256 255 249 247 248
281 259 247 241 240 243 241 235 232 234 231 232 237 236 233 231 228 226 227 229 228 224 220 219 218 217 217 216 217 219 223 229 237 248 259 269 266 258 254 249 244 239 241
282 264 249 243 239 240 242 238 231 231 228 229 238 244 240 231 224 223 225 225 220 218 220 221 219 216 215 216 220 224 229 235 242 250 259 262 256 252 250 246 240 236 238
273 266 251 242 239 239 240 237 227 227 228 230 237 250 244 227 220 219 222 223 218 216 216 217 215 212 213 216 222 227 232 238 244 249 251 248 246 246 245 243 240 239 242
262 255 250 242 237 238 238 236 230 229 231 230 235 246 234 214 212 212 215 217 215 212 212 213 212 209 210 213 217 223 228 233 237 239 239 236 234 232 235 241 246 250 255
263 252 244 241 238 239 240 239 236 233 232 230 231 234 223 206 206 209 213 214 213 211 210 210 209 209 209 211 214 218 221 223 227 232 233 227 219 222 233 246 255 261 266
265 259 248 241 245 247 245 242 240 235 231 229 225 224 226 222 215 214 217 216 215 215 215 215 215 215 216 218 222 225 226 227 229 235 236 228 222 225 235 248 257 260 264
264 264 255 248 255 257 253 245 240 237 232 227 223 221 226 231 228 224 223 221 218 217 218 221 223 225 227 230 233 235 236 237 239 243 245 239 233 235 242 251 256 257 259
263 260 258 256 256 261 259 251 241 238 233 227 224 224 227 231 230 229 230 230 226 223 220 220 223 228 232 235 237 238 240 242 243 246 247 243 239 241 247 254 258 259 259
260 256 256 254 257 259 258 255 244 237 233 228 226 226 228 232 232 233 237 241 240 237 231 227 225 227 231 234 237 240 242 244 246 248 248 244 242 243 248 255 260 260 261
258 256 256 255 257 258 258 254 245 237 234 230 228 227 228 233 234 235 240 245 247 246 244 240 236 234 234 237 241 245 248 251 252 252 250 248 245 245 248 253 257 258 260
257 256 256 257 258 258 257 253 246 239 235 231 229 228 229 233 236 238 242 248 253 252 250 247 243 240 239 240 244 249 252 254 254 253 251 249 248 247 248 251 254 257 259
257 258 257 257 257 256 255 252 247 241 236 233 231 230 231 232 236 240 244 250 253 254 252 248 246 244 242 243 246 250 252 253 252 250 248 248 248 248 248 250 253 257 260
259 259 258 257 255 255 256 252 248 244 238 237 235 232 232 233 235 240 245 248 250 251 247 242 242 244 246 246 248 251 252 252 250 247 245 246 247 248 249 251 254 259 262
263 261 261 259 258 259 257 254 245 242 239 237 236 234 234 233 235 242 246 246 246 246 246 243 240 244 248 248 248 249 251 252 250 248 246 247 250 253 254 256 259 262 263
269 266 263 262 259 256 253 251 245 241 238 236 234 232 233 234 236 244 247 246 246 245 246 247 245 244 251 253 251 250 251 252 252 250 249 251 254 257 258 260 261 262 264
272 270 265 263 260 256 253 250 248 244 239 235 232 230 231 233 238 244 248 247 246 244 245 248 250 250 252 254 254 253 252 253 253 253 253 253 256 258 259 260 261 262 265
273 271 267 261 256 253 250 249 245 242 238 234 233 232 232 233 239 244 247 246 245 246 246 249 253 254 253 254 254 254 254 255 255 255 254 256 258 258 258 258 261 263 266
270 268 265 258 252 249 247 245 242 240 239 240 240 239 238 240 242 244 245 246 246 248 249 251 253 254 253 252 252 253 254 256 256 255 256 257 257 256 257 259 261 265 269
265 263 261 256 250 247 245 244 244 244 244 244 246 246 245 245 244 245 246 247 248 249 252 254 254 252 251 251 250 251 253 254 253 252 253 255 254 253 256 261 264 267 270
262 259 257 255 251 248 246 247 248 248 248 248 250 250 250 249 247 246 246 247 247 249 252 254 253 252 250 248 247 248 248 248 248 249 250 251 251 252 255 259 263 267 269
261 259 257 255 252 250 249 249 250 250 249 250 251 251 251 250 249 247 247 247 247 248 249 249 249 249 247 246 244 243 242 243 246 247 248 250 253 256 256 258 262 266 268
263 260 257 255 252 250 249 248 247 247 247 247 248 248 249 250 251 249 248 247 247 247 247 247 245 245 244 244 242 239 239 242 245 247 249 252 256 258 259 259 262 265 268
264 261 257 255 252 250 249 248 246 245 244 245 246 247 249 250 250 251 250 247 246 245 245 244 242 240 240 240 238 235 238 242 246 248 250 253 257 260 261 261 262 264 266
263 261 259 256 253 252 251 249 247 245 244 245 247 248 248 249 251 251 253 251 247 244 243 242 241 239 238 237 235 235 238 242 246 247 249 252 256 259 262 263 263 263 264
Height
5852 5851 5851 5852 5853 5854 5854 5855 5856 5857 5858 5859 5860 5861 5862 5864 5865 5867 5868 5870 5871 5872 5873 5874 5877 5880 5882 5885 5887 5888 5890 5892 5893 5894 5895 5895 5895 5896 5896 5897 5896 5896 5896
5849 5848 5849 5850 5851 5852 5852 5853 5854 5855 5855 5856 5857 5858 5859 5860 5862 5863 5865 5866 5868 5869 5870 5872 5874 5877 5880 5882 5884 5886 5888 5890 5892 5893 5893 5894 5894 5894 5895 5895 5895 5895 5895
5846 5846 5846 5847 5848 5849 5850 5851 5852 5853 5853 5854 5855 5856 5856 5857 5858 5860 5862 5864 5865 5866 5868 5870 5872 5874 5876 5879 5882 5884 5886 5888 5889 5890 5891 5892 5892 5892 5893 5894 5894 5894 5894
5844 5843 5843 5844 5845 5847 5848 5849 5850 5851 5851 5852 5853 5853 5854 5854 5855 5857 5859 5861 5863 5865 5866 5868 5870 5872 5874 5876 5879 5882 5884 5886 5887 5888 5889 5889 5890 5890 5891 5892 5893 5893 5893
5841 5841 5840 5841 5842 5844 5845 5847 5848 5849 5850 5850 5851 5851 5852 5852 5853 5854 5856 5858 5860 5862 5864 5866 5867 5869 5872 5874 5876 5879 5881 5883 5884 5885 5886 5887 5888 5888 5889 5890 5891 5892 5892
5838 5838 5838 5838 5839 5841 5842 5844 5845 5847 5848 5849 5849 5850 5850 5850 5851 5852 5853 5855 5857 5859 5861 5863 5865 5867 5869 5872 5874 5876 5877 5879 5881 5882 5883 5884 5885 5886 5888 5889 5890 5891 5891
5835 5834 5834 5835 5836 5837 5839 5840 5842 5844 5845 5846 5848 5849 5849 5849 5850 5851 5852 5853 5855 5856 5858 5860 5862 5864 5867 5869 5871 5873 5874 5876 5878 5879 5880 5881 5883 5885 5886 5887 5888 5889 5889
5831 5830 5831 5831 5832 5833 5835 5837 5839 5840 5842 5843 5845 5847 5848 5849 5849 5849 5850 5852 5853 5855 5856 5858 5860 5862 5864 5866 5868 5870 5872 5873 5875 5876 5878 5879 5881 5883 5884 5886 5886 5887 5887
5826 5825 5826 5827 5828 5829 5831 5833 5835 5837 5838 5840 5842 5844 5846 5848 5848 5849 5849 5850 5852 5853 5854 5856 5858 5860 5862 5863 5865 5867 5869 5871 5872 5874 5875 5877 5878 5880 5882 5883 5884 5885 5885
5820 5820 5820 5821 5823 5825 5826 5828 5830 5832 5834 5837 5839 5841 5843 5845 5847 5848 5849 5849 5850 5851 5852 5854 5856 5858 5859 5861 5862 5863 5865 5867 5869 5871 5872 5874 5875 5877 5879 5880 5881 5882 5883
5815 5815 5815 5816 5818 5819 5820 5822 5824 5827 5829 5832 5834 5836 5839 5841 5843 5846 5847 5848 5848 5850 5851 5852 5853 5855 5856 5858 5859 5860 5862 5863 5865 5867 5868 5870 5871 5873 5875 5877 5878 5879 5879
5809 5810 5810 5811 5812 5813 5814 5815 5818 5821 5824 5827 5829 5832 5834 5837 5839 5842 5844 5845 5846 5847 5849 5850 5851 5852 5854 5855 5856 5858 5859 5860 5861 5862 5864 5865 5867 5869 5871 5872 5874 5875 5875
5803 5804 5804 5805 5805 5806 5806 5808 5811 5814 5817 5821 5824 5827 5830 5832 5834 5837 5840 5841 5843 5844 5846 5847 5848 5849 5850 5852 5853 5854 5855 5856 5858 5859 5860 5861 5863 5865 5866 5868 5869 5870 5871
5797 5798 5798 5798 5798 5799 5799 5800 5803 5806 5810 5814 5817 5821 5825 5827 5829 5832 5835 5837 5839 5841 5842 5844 5845 5846 5847 5848 5849 5850 5852 5853 5854 5855 5856 5857 5859 5860 5862 5863 5864 5865 5866
5792 5793 5793 5793 5793 5793 5793 5793 5795 5798 5803 5807 5811 5815 5819 5822 5824 5827 5830 5832 5835 5836 5838 5840 5841 5842 5843 5844 5845 5846 5848 5849 5850 5851 5852 5853 5854 5856 5857 5858 5859 5860 5861
5788 5788 5788 5788 5788 5788 5788 5787 5788 5790 5794 5799 5804 5808 5812 5816 5819 5822 5824 5827 5829 5831 5833 5835 5837 5838 5839 5840 5841 5842 5843 5844 5846 5847 5848 5849 5850 5850 5851 5852 5853 5854 5855
5784 5784 5784 5783 5783 5783 5783 5783 5783 5785 5787 5792 5796 5801 5805 5809 5813 5815 5818 5820 5823 5826 5827 5829 5831 5833 5835 5836 5836 5838 5839 5840 5841 5842 5843 5844 5844 5845 5846 5847 5847 5848 5849
5779 5779 5779 5779 5779 5778 5779 5779 5779 5780 5782 5785 5789 5794 5798 5802 5806 5808 5811 5813 5816 5819 5821 5823 5824 5827 5830 5830 5831 5832 5834 5835 5836 5837 5838 5838 5839 5840 5840 5841 5842 5842 5843
5774 5774 5774 5774 5774 5774 5774 5774 5775 5776 5778 5780 5783 5787 5790 5794 5798 5801 5803 5806 5809 5812 5815 5817 5818 5820 5823 5824 5825 5827 5828 5829 5830 5831 5832 5833 5833 5834 5835 5835 5836 5836 5836
5767 5768 5768 5768 5769 5769 5769 5770 5771 5772 5774 5776 5778 5780 5783 5786 5790 5793 5796 5799 5801 5804 5807 5809 5811 5813 5815 5817 5819 5820 5822 5823 5824 5824 5825 5826 5827 5828 5829 5829 5830 5830 5830
5760 5761 5761 5762 5763 5764 5764 5765 5766 5767 5768 5770 5772 5774 5776 5778 5781 5784 5787 5790 5793 5796 5798 5800 5802 5804 5807 5809 5811 5813 5815 5816 5817 5818 5819 5820 5821 5822 5822 5823 5823 5824 5824
5754 5754 5754 5755 5756 5757 5758 5759 5760 5761 5762 5764 5765 5767 5769 5770 5773 5776 5778 5781 5785 5787 5789 5792 5794 5796 5799 5801 5803 5806 5808 5810 5811 5812 5812 5813 5815 5816 5817 5817 5817 5817 5817
5746 5747 5747 5748 5749 5750 5751 5753 5754 5755 5756 5757 5759 5760 5762 5763 5765 5767 5770 5772 5776 5778 5781 5783 5786 5788 5790 5793 5796 5799 5801 5803 5804 5804 5805 5807 5808 5810 5811 5811 5812 5812 5812
5739 5739 5740 5740 5741 5743 5744 5745 5746 5747 5749 5750 5752 5754 5755 5757 5758 5760 5762 5764 5767 5769 5772 5775 5778 5780 5782 5785 5789 5792 5794 5795 5796 5797 5799 5800 5802 5803 5804 5805 5806 5806 5806
5731 5731 5731 5732 5733 5734 5735 5737 5738 5740 5741 5743 5745 5746 5748 5750 5751 5753 5755 5757 5759 5761 5763 5766 5769 5771 5774 5777 5780 5784 5786 5787 5788 5790 5792 5794 5795 5796 5797 5798 5799 5800 5800
5722 5722 5723 5724 5725 5726 5727 5728 5730 5732 5734 5736 5737 5739 5741 5743 5744 5746 5748 5749 5750 5751 5754 5756 5759 5762 5765 5768 5772 5775 5777 5779 5781 5784 5786 5787 5788 5789 5790 5791 5792 5793 5793